This is the latest recevied weather packets stored in our database for station/object KC9DNQ-3. If no packets are shown the sender has not sent any weather packets the latest 1 day(s).
| Time | Temp. | Humidity | Pressure | Rain* | Wind** | Luminosity | Snow |
|---|---|---|---|---|---|---|---|
| 1778039408 | 9.44° C | 68% | 1009.6 hPa | 0 mm | - | 0 W/m² | - |
| 1778038809 | 10° C | 70% | 1009.6 hPa | 0 mm | - | 0 W/m² | - |
| 1778038508 | 10° C | 67% | 1009.5 hPa | 0 mm | - | 0 W/m² | - |
| 1778037908 | 10° C | 68% | 1009.5 hPa | 0 mm | - | 0 W/m² | - |
| 1778037608 | 10° C | 70% | 1009.3 hPa | 0 mm | - | 0 W/m² | - |
| 1778037309 | 10° C | 70% | 1009.3 hPa | 0 mm | - | 0 W/m² | - |
| 1778037008 | 10° C | 68% | 1009.4 hPa | 0 mm | - | 0 W/m² | - |
| 1778036409 | 10° C | 69% | 1009.2 hPa | 0 mm | - | 0 W/m² | - |
| 1778036108 | 10° C | 67% | 1009.2 hPa | 0 mm | - | 0 W/m² | - |
| 1778035509 | 10° C | 71% | 1008.8 hPa | 0 mm | - | 0 W/m² | - |
| 1778035208 | 10° C | 70% | 1008.8 hPa | 0 mm | - | 0 W/m² | - |
| 1778033708 | 10.56° C | 66% | 1008.8 hPa | 0 mm | - | 0 W/m² | - |
| 1778033408 | 10.56° C | 67% | 1008.3 hPa | 0 mm | - | 0 W/m² | - |
| 1778033109 | 10.56° C | 66% | 1008.3 hPa | 0 mm | - | 0 W/m² | - |
| 1778032509 | 10.56° C | 64% | 1008.3 hPa | 0 mm | - | 0 W/m² | - |
| 1778032208 | 10.56° C | 66% | 1008.3 hPa | 0 mm | - | 0 W/m² | - |
| 1778031909 | 11.11° C | 66% | 1008.3 hPa | 0 mm | - | 0 W/m² | - |
| 1778031609 | 11.11° C | 60% | 1008.2 hPa | 0 mm | - | 0 W/m² | - |
| 1778031009 | 11.11° C | 56% | 1008.1 hPa | 0 mm | - | 0 W/m² | - |
| 1778030708 | 11.11° C | 56% | 1008 hPa | 0 mm | - | 0 W/m² | - |
| 1778030410 | 11.11° C | 55% | 1008.1 hPa | 0 mm | - | 0 W/m² | - |
| 1778029508 | 11.67° C | 52% | 1008 hPa | 0 mm | - | 0 W/m² | - |
| 1778028909 | 11.67° C | 52% | 1007.7 hPa | 0 mm | - | 0 W/m² | - |
| 1778028009 | 11.67° C | 50% | 1007.7 hPa | 0 mm | - | 0 W/m² | - |
| 1778027408 | 11.67° C | 49% | 1007.6 hPa | 0 mm | - | 7 W/m² | - |
* Rain latest hour (hover to see other rain measurements)
** Current wind speed in m/s (hover to see current wind gust speed)